This is the latest recevied weather packets stored in our database for station/object SR5MRF. If no packets are shown the sender has not sent any weather packets the latest 10 day(s).
| Time | Temp. | Humidity | Pressure | Rain* | Wind** | Luminosity | Snow |
|---|---|---|---|---|---|---|---|
| 1778066920 | 26.67° C | 38% | 1002.7 hPa | 0 mm | - | - | - |
| 1778066559 | 26.67° C | 38% | 1002.7 hPa | 0 mm | - | - | - |
| 1778066320 | 27.22° C | 38% | 1002.7 hPa | 0 mm | - | - | - |
| 1778066139 | 27.22° C | 38% | 1002.7 hPa | 0 mm | - | - | - |
| 1778065719 | 27.22° C | 38% | 1002.5 hPa | 0 mm | - | - | - |
| 1778065299 | 27.22° C | 38% | 1002.5 hPa | 0 mm | - | - | - |
| 1778065120 | 27.78° C | 38% | 1002.5 hPa | 0 mm | - | - | - |
| 1778064879 | 27.78° C | 37% | 1002.4 hPa | 0 mm | - | - | - |
| 1778064520 | 27.78° C | 37% | 1002.6 hPa | 0 mm | - | - | - |
| 1778064459 | 27.78° C | 37% | 1002.5 hPa | 0 mm | - | - | - |
| 1778064039 | 27.78° C | 37% | 1002.7 hPa | 0 mm | - | - | - |
| 1778063920 | 27.78° C | 37% | 1002.7 hPa | 0 mm | - | - | - |
| 1778063619 | 27.78° C | 37% | 1002.8 hPa | 0 mm | - | - | - |
| 1778063320 | 27.78° C | 37% | 1002.6 hPa | 0 mm | - | - | - |
| 1778063199 | 27.78° C | 37% | 1002.7 hPa | 0 mm | - | - | - |
| 1778062779 | 27.78° C | 37% | 1002.7 hPa | 0 mm | - | - | - |
| 1778062359 | 27.78° C | 37% | 1002.7 hPa | 0 mm | - | - | - |
| 1778061939 | 27.78° C | 36% | 1002.8 hPa | 0 mm | - | - | - |
| 1778061519 | 27.78° C | 36% | 1002.7 hPa | 0 mm | - | - | - |
| 1778061099 | 27.22° C | 36% | 1002.7 hPa | 0 mm | - | - | - |
| 1778060920 | 27.22° C | 36% | 1002.7 hPa | 0 mm | - | - | - |
| 1778060679 | 26.67° C | 37% | 1002.7 hPa | 0 mm | - | - | - |
| 1778060320 | 26.11° C | 37% | 1002.8 hPa | 0 mm | - | - | - |
| 1778060259 | 26.11° C | 37% | 1002.8 hPa | 0 mm | - | - | - |
| 1778059839 | 25.56° C | 37% | 1002.6 hPa | 0 mm | - | - | - |
* Rain latest hour (hover to see other rain measurements)
** Current wind speed in m/s (hover to see current wind gust speed)